TimeEST,TemperatureF,Dew PointF,Humidity,Sea Level PressureIn,VisibilityMPH,Wind Direction,Wind SpeedMPH,Gust SpeedMPH,PrecipitationIn,Events,Conditions,WindDirDegrees,DateUTC
12:54 AM,37.9,36.0,93,30.24,5.0,WSW,4.6,-,0.16,Rain,Rain,250,2013-02-22 05:54:00
1:54 AM,37.0,36.0,96,30.21,10.0,SSE,6.9,-,0.06,Rain,Light Rain,150,2013-02-22 06:54:00
2:23 AM,37.4,35.6,93,30.19,8.0,South,8.1,-,0.03,Rain,Light Rain,180,2013-02-22 07:23:00
2:32 AM,37.4,35.6,93,30.20,9.0,Variable,3.5,-,0.03,Rain,Light Rain,0,2013-02-22 07:32:00
2:54 AM,37.0,35.1,93,30.18,8.0,SSE,12.7,-,0.04,Rain,Light Rain,160,2013-02-22 07:54:00
3:54 AM,36.0,35.1,97,30.14,10.0,South,8.1,-,0.06,Rain,Light Rain,170,2013-02-22 08:54:00
4:54 AM,36.0,34.0,93,30.16,10.0,SSE,8.1,-,0.01,Rain,Light Rain,160,2013-02-22 09:54:00
5:10 AM,35.6,33.8,93,30.16,6.0,SSE,9.2,-,0.02,Rain,Light Rain,160,2013-02-22 10:10:00
5:41 AM,35.6,33.8,93,30.19,4.0,SSE,8.1,-,0.03,Rain,Light Rain,160,2013-02-22 10:41:00
5:48 AM,35.6,33.8,93,30.19,4.0,SSE,8.1,-,0.04,Rain,Light Rain,150,2013-02-22 10:48:00
5:49 AM,35.1,34.0,96,30.20,5.0,SSE,6.9,-,0.04,Rain,Light Rain,150,2013-02-22 10:49:00
6:21 AM,35.6,33.8,93,30.20,10.0,SSE,9.2,-,0.00,,Overcast,160,2013-02-22 11:21:00
6:54 AM,35.1,33.1,92,30.21,10.0,SSE,6.9,-,0.00,,Overcast,160,2013-02-22 11:54:00
7:02 AM,35.6,33.8,93,30.20,10.0,South,5.8,-,N/A,,Overcast,170,2013-02-22 12:02:00
7:41 AM,35.6,33.8,93,30.20,10.0,SSW,4.6,-,N/A,,Overcast,200,2013-02-22 12:41:00
7:54 AM,35.1,33.1,92,30.19,10.0,South,5.8,-,N/A,,Overcast,190,2013-02-22 12:54:00
8:47 AM,35.6,33.8,93,30.21,10.0,South,5.8,-,N/A,,Overcast,180,2013-02-22 13:47:00
8:54 AM,36.0,33.1,89,30.22,10.0,South,6.9,-,N/A,,Overcast,190,2013-02-22 13:54:00
9:54 AM,36.0,33.1,89,30.22,10.0,South,5.8,-,N/A,,Overcast,170,2013-02-22 14:54:00
10:01 AM,35.6,32.0,87,30.21,10.0,South,6.9,-,N/A,,Overcast,180,2013-02-22 15:01:00
10:28 AM,35.6,33.8,93,30.20,10.0,South,6.9,-,N/A,,Overcast,180,2013-02-22 15:28:00
10:44 AM,35.6,33.8,93,30.20,10.0,South,6.9,-,N/A,,Overcast,170,2013-02-22 15:44:00
10:54 AM,36.0,33.1,89,30.22,10.0,South,6.9,-,N/A,,Overcast,170,2013-02-22 15:54:00
11:08 AM,35.6,33.8,93,30.20,10.0,SSE,9.2,-,N/A,,Overcast,160,2013-02-22 16:08:00
11:26 AM,35.6,33.8,93,30.19,10.0,SSE,8.1,-,N/A,,Overcast,150,2013-02-22 16:26:00
11:54 AM,37.0,33.1,86,30.19,10.0,SSE,8.1,-,N/A,,Overcast,160,2013-02-22 16:54:00
12:50 PM,35.6,35.6,100,30.16,2.5,South,5.8,-,N/A,,Overcast,170,2013-02-22 17:50:00
12:54 PM,37.0,35.1,93,30.18,2.5,South,5.8,-,N/A,,Overcast,170,2013-02-22 17:54:00
1:01 PM,37.4,35.6,93,30.16,2.5,South,4.6,-,N/A,,Overcast,180,2013-02-22 18:01:00
1:07 PM,37.4,35.6,93,30.15,3.0,South,4.6,-,N/A,,Overcast,170,2013-02-22 18:07:00
1:33 PM,37.4,35.6,93,30.15,2.0,ESE,5.8,-,N/A,,Overcast,120,2013-02-22 18:33:00
1:46 PM,37.4,35.6,93,30.14,3.0,SE,6.9,-,N/A,,Overcast,130,2013-02-22 18:46:00
1:54 PM,37.0,35.1,93,30.16,4.0,Variable,4.6,-,N/A,,Overcast,0,2013-02-22 18:54:00
2:20 PM,37.4,35.6,93,30.13,4.0,SE,3.5,-,N/A,,Overcast,130,2013-02-22 19:20:00
2:54 PM,37.9,37.0,97,30.13,3.0,ESE,5.8,-,N/A,,Overcast,120,2013-02-22 19:54:00
3:54 PM,39.9,37.9,93,30.12,9.0,SE,4.6,-,N/A,,Overcast,130,2013-02-22 20:54:00
4:03 PM,39.2,37.4,93,30.10,2.5,SSE,4.6,-,N/A,,Overcast,150,2013-02-22 21:03:00
4:54 PM,39.9,37.9,93,30.11,2.5,SE,4.6,-,N/A,,Overcast,130,2013-02-22 21:54:00
5:01 PM,39.2,37.4,93,30.08,10.0,ESE,6.9,-,N/A,,Overcast,120,2013-02-22 22:01:00
5:54 PM,39.9,37.9,93,30.10,10.0,South,8.1,-,N/A,,Overcast,170,2013-02-22 22:54:00
6:46 PM,39.2,37.4,93,30.09,5.0,South,8.1,-,N/A,,Overcast,180,2013-02-22 23:46:00
6:54 PM,39.0,37.9,96,30.11,2.0,South,5.8,-,N/A,,Overcast,170,2013-02-22 23:54:00
7:01 PM,39.2,37.4,93,30.09,3.0,South,8.1,-,N/A,,Overcast,180,2013-02-23 00:01:00
7:54 PM,37.9,37.0,97,30.11,2.0,SSE,6.9,-,N/A,,Overcast,160,2013-02-23 00:54:00
8:01 PM,37.4,37.4,100,30.09,7.0,South,8.1,-,N/A,,Overcast,170,2013-02-23 01:01:00
8:47 PM,37.4,37.4,100,30.09,2.5,South,5.8,-,N/A,,Overcast,170,2013-02-23 01:47:00
8:54 PM,37.9,37.0,97,30.12,3.0,South,8.1,-,N/A,,Overcast,170,2013-02-23 01:54:00
9:02 PM,37.4,37.4,100,30.09,1.0,South,8.1,-,N/A,,Overcast,170,2013-02-23 02:02:00
9:54 PM,37.0,36.0,96,30.10,1.0,SSE,6.9,-,N/A,,Overcast,150,2013-02-23 02:54:00
10:01 PM,37.4,35.6,93,30.07,2.5,South,6.9,-,N/A,,Overcast,170,2013-02-23 03:01:00
10:09 PM,37.4,37.4,100,30.06,1.0,SSE,6.9,-,N/A,,Overcast,160,2013-02-23 03:09:00
10:54 PM,37.0,37.0,100,30.09,1.0,SSE,5.8,-,N/A,,Overcast,160,2013-02-23 03:54:00
11:01 PM,37.4,37.4,100,30.07,3.0,SSE,4.6,-,N/A,,Overcast,160,2013-02-23 04:01:00
11:54 PM,37.0,37.0,100,30.09,3.0,SSE,6.9,-,N/A,,Overcast,150,2013-02-23 04:54:00